DW3471 Weather Reports


time (UTC)temp
C
wind
direction
speed
KPH
gust
KPH
rain 1hr
cm
rain 24hr
cm
rain mn
cm
humidity
%
barometer
mb
20260505165441 27 48 3.2 11.3 0.00 0.00 0.00 42 1009.9
20260505164440 26 291 3.2 8.0 0.00 0.00 0.00 43 1009.9
20260505163440 26 39 3.2 8.0 0.00 0.00 0.00 43 1009.9
20260505162408 26 4 3.2 11.3 0.00 0.00 0.00 44 1010.2
20260505161408 25 250 3.2 9.7 0.00 0.00 0.00 46 1010.2
20260505160407 25 57 3.2 8.0 0.00 0.00 0.00 47 1010.2
20260505152405 25 249 3.2 6.4 0.00 0.00 0.00 46 1010.6
20260505151404 25 343 3.2 4.8 0.00 0.00 0.00 46 1010.6
20260505150403 25 32 1.6 4.8 0.00 0.00 0.00 45 1010.6
20260505140328 22 200 1.6 6.4 0.00 0.00 0.00 50 1010.8
20260505130223 18 351 3.2 6.4 0.00 0.00 0.00 64 1011.1
20260505124222 17 73 3.2 4.8 0.00 0.00 0.00 69 1010.7
20260505123221 16 57 0.0 6.4 0.00 0.00 0.00 71 1010.7
20260505122220 16 346 8.0 9.7 0.00 0.00 0.00 72 1010.7
20260505121220 15 355 3.2 8.0 0.00 0.00 0.00 75 1010.7
20260505120219 14 231 4.8 6.4 0.00 0.00 0.00 75 1010.7
20260505115218 13 212 3.2 4.8 0.00 0.00 0.00 77 1010.7
20260505114218 13 34 1.6 3.2 0.00 0.00 0.00 77 1010.7
20260505113217 13 50 3.2 4.8 0.00 0.00 0.00 78 1010.7
20260505112216 12 23 1.6 3.2 0.00 0.00 0.00 78 1010.4
20260505111216 12 69 1.6 4.8 0.00 0.00 0.00 78 1010.4
20260505110215 12 224 3.2 4.8 0.00 0.00 0.00 78 1010.4
20260505102214 13 157 1.6 3.2 0.00 0.00 0.00 76 1010.4
20260505101213 13 255 0.0 4.8 0.00 0.00 0.00 76 1010.1
20260505100212 13 25 1.6 3.2 0.00 0.00 0.00 76 1010.1
20260505095211 13 330 1.6 8.0 0.00 0.00 0.00 76 1009.8
20260505094211 13 43 0.0 3.2 0.00 0.00 0.00 76 1009.8
20260505093210 13 5 3.2 6.4 0.00 0.00 0.00 76 1009.8
20260505092210 12 42 1.6 6.4 0.00 0.00 0.00 77 1009.8
20260505091209 12 111 1.6 3.2 0.00 0.00 0.00 77 1009.8
20260505090209 12 215 0.0 6.4 0.00 0.00 0.00 77 1009.8
20260505085208 13 59 1.6 4.8 0.00 0.00 0.00 77 1009.8
20260505084208 13 300 0.0 0.0 0.00 0.00 0.00 76 1010.1
20260505083207 13 296 0.0 0.0 0.00 0.00 0.00 76 1010.1
20260505082206 13 296 3.2 3.2 0.00 0.00 0.00 76 1009.8
20260505081205 13 34 0.0 3.2 0.00 0.00 0.00 75 1009.8
20260505080205 13 331 1.6 3.2 0.00 0.00 0.00 75 1009.8
20260505075204 13 328 3.2 3.2 0.00 0.00 0.00 75 1009.8
20260505074132 13 327 0.0 1.6 0.00 0.00 0.00 75 1010.1
20260505073132 13 334 0.0 1.6 0.00 0.00 0.00 75 1010.1
20260505072131 14 339 1.6 3.2 0.00 0.00 0.00 75 1010.1
20260505071130 14 334 3.2 3.2 0.00 0.00 0.00 74 1010.1
20260505070129 14 319 0.0 3.2 0.00 0.00 0.00 74 1009.8
20260505065129 15 315 1.6 1.6 0.00 0.00 0.00 73 1009.8
20260505064128 15 312 1.6 3.2 0.00 0.00 0.00 73 1009.8
20260505063128 15 293 1.6 4.8 0.00 0.00 0.00 73 1009.8
20260505062127 15 62 3.2 8.0 0.00 0.00 0.00 73 1009.5
20260505061127 15 302 3.2 6.4 0.00 0.00 0.00 72 1009.8
20260505060126 15 146 1.6 6.4 0.00 0.00 0.00 72 1009.8
20260505055126 15 325 1.6 6.4 0.00 0.00 0.00 71 1009.8
20260505054054 15 86 1.6 8.0 0.00 0.00 0.00 71 1009.8
20260505053022 15 65 1.6 6.4 0.00 0.00 0.00 71 1009.8
20260505051950 15 38 1.6 8.0 0.00 0.00 0.00 70 1009.8
20260505050950 15 57 1.6 8.0 0.00 0.00 0.00 70 1009.8
20260505040947 16 62 3.2 6.4 0.00 0.00 0.00 66 1009.8
20260505035946 16 46 3.2 8.0 0.00 0.00 0.00 64 1009.8
20260505034914 16 55 1.6 8.0 0.00 0.00 0.00 62 1009.7
20260505033914 16 33 1.6 4.8 0.00 0.00 0.00 60 1009.7
20260505032913 16 66 3.2 4.8 0.00 0.00 0.00 59 1009.7
20260505031912 16 245 1.6 6.4 0.00 0.00 0.00 58 1009.7
20260505030912 16 47 3.2 6.4 0.00 0.00 0.00 58 1009.7
20260505025911 16 48 0.0 3.2 0.00 0.00 0.00 59 1009.7
20260505024911 16 28 3.2 4.8 0.00 0.00 0.00 59 1010.0
20260505023910 16 65 0.0 4.8 0.00 0.00 0.00 58 1010.0
20260505022909 16 80 0.0 3.2 0.00 0.00 0.00 58 1010.0
20260505021837 16 50 1.6 4.8 0.00 0.00 0.00 58 1010.0
20260505020837 16 328 3.2 8.0 0.00 0.00 0.00 57 1010.0
20260505015836 16 32 1.6 4.8 0.00 0.00 0.00 58 1010.0
20260505014835 16 351 3.2 4.8 0.00 0.00 0.00 57 1010.0
20260505013835 16 34 1.6 3.2 0.00 0.00 0.00 57 1010.0
20260505012834 16 348 0.0 1.6 0.00 0.00 0.00 56 1010.0
20260505011833 16 348 0.0 3.2 0.00 0.00 0.00 55 1010.0
20260505010802 16 212 3.2 9.7 0.00 0.00 0.00 54 1009.6
20260505005801 17 16 0.0 1.6 0.00 0.00 0.00 53 1009.6
20260505004801 17 16 0.0 1.6 0.00 0.00 0.00 52 1009.6
20260505003800 17 16 0.0 1.6 0.00 0.00 0.00 51 1009.2
20260505002759 17 15 0.0 0.0 0.00 0.00 0.00 51 1009.2
20260505001728 18 15 1.6 4.8 0.00 0.00 0.00 49 1009.2
20260505000727 18 348 0.0 3.2 0.00 0.00 0.00 48 1009.2
20260504235726 18 343 1.6 3.2 0.00 0.00 0.00 47 1009.2
20260504234726 19 336 0.0 3.2 0.00 0.00 0.00 45 1009.2
20260504233725 20 341 0.0 3.2 0.00 0.00 0.00 45 1008.9
20260504232724 20 347 3.2 9.7 0.00 0.00 0.00 44 1008.9
20260504231724 20 135 3.2 4.8 0.00 0.00 0.00 43 1008.9
20260504230723 21 63 3.2 8.0 0.00 0.00 0.00 40 1008.9
20260504225722 21 355 3.2 6.4 0.00 0.00 0.00 41 1008.9
20260504224722 21 199 3.2 8.0 0.00 0.00 0.00 38 1008.9
20260504223722 22 172 3.2 6.4 0.00 0.00 0.00 37 1008.9
20260504222650 22 357 1.6 11.3 0.00 0.00 0.00 36 1008.9
20260504221649 22 208 3.2 6.4 0.00 0.00 0.00 35 1008.9
20260504220649 23 37 1.6 9.7 0.00 0.00 0.00 35 1008.9
20260504215649 23 273 3.2 11.3 0.00 0.00 0.00 36 1009.3
20260504214617 22 349 3.2 8.0 0.00 0.00 0.00 35 1009.3
20260504213545 23 254 4.8 11.3 0.00 0.00 0.00 33 1009.3
20260504212545 23 299 3.2 8.0 0.00 0.00 0.00 34 1009.3
20260504211544 23 246 0.0 4.8 0.00 0.00 0.00 34 1009.3
20260504210512 23 291 4.8 8.0 0.00 0.00 0.00 33 1009.3
20260504205441 23 53 3.2 8.0 0.00 0.00 0.00 33 1009.3
20260504204440 24 358 3.2 6.4 0.00 0.00 0.00 33 1009.3
20260504203439 23 286 3.2 8.0 0.00 0.00 0.00 33 1009.3
20260504202439 23 22 1.6 9.7 0.00 0.00 0.00 33 1009.3
20260504201438 23 37 3.2 11.3 0.00 0.00 0.00 32 1009.3
20260504200437 23 317 3.2 11.3 0.00 0.00 0.00 32 1009.3
20260504195436 23 241 3.2 11.3 0.00 0.00 0.00 33 1009.3
20260504194436 23 239 4.8 8.0 0.00 0.00 0.00 32 1009.6
20260504193435 23 218 3.2 11.3 0.00 0.00 0.00 32 1009.6
20260504192434 23 314 3.2 8.0 0.00 0.00 0.00 32 1009.6
20260504191331 23 287 3.2 9.7 0.00 0.00 0.00 34 1010.0
20260504190331 23 18 3.2 12.9 0.00 0.00 0.00 33 1010.0
20260504185228 23 347 3.2 12.9 0.00 0.00 0.00 32 1010.3
20260504184157 23 284 1.6 14.5 0.00 0.00 0.00 32 1010.3
20260504183156 22 60 3.2 8.0 0.00 0.00 0.00 34 1010.3
20260504182156 23 258 4.8 17.7 0.00 0.00 0.00 32 1010.7
20260504181052 23 253 3.2 8.0 0.00 0.00 0.00 34 1010.7
20260504180052 22 296 3.2 8.0 0.00 0.00 0.00 33 1011.0
20260504175051 22 170 3.2 8.0 0.00 0.00 0.00 37 1011.0
20260504174020 22 276 4.8 9.7 0.00 0.00 0.00 34 1011.3
20260504173019 22 19 1.6 8.0 0.00 0.00 0.00 33 1011.3
20260504172019 21 266 3.2 8.0 0.00 0.00 0.00 34 1011.3
20260504171018 21 303 4.8 8.0 0.00 0.00 0.00 35 1011.6